Regional Weather Roundup
Issued by NWS Burlington, VT

Home | Current Version | Previous Version | Text Only | Print | Product List | Glossary On
Versions: 1 2 3 4 5 6 7 8 9 10 11 12 13 14 15 16 17 18 19 20 21 22 23 24 25 26 27 28 29 30 31 32 33 34 35 36 37 38 39 40 41 42 43 44 45 46 47 48 49 50
000
ASUS41 KBTV 250730
RWRBTV
VERMONT REGIONAL WEATHER ROUNDUP
NATIONAL WEATHER SERVICE BURLINGTON VT
300 AM EDT FRI JUL 25 2014

NOTE: "FAIR" INDICATES FEW OR NO CLOUDS BELOW 12,000 FEET WITH NO
SIGNIFICANT WEATHER AND/OR OBSTRUCTIONS TO VISIBILITY.

* THESE REPORTS ARE NOT UNDER NWS QUALITY CONTROL AND/OR DO NOT
  REPORT WEATHER SUCH AS PRECIPITATION AND FOG.

VTZ001>019-250800-
_____VERMONT_____


CITY           SKY/WX    TMP DP  RH WIND       PRES   REMARKS
BURLINGTON     SUNNY     55  51  86 CALM      29.95F
MONTPELIER     SUNNY     49  48  97 CALM      30.01S
MORRISVILLE    PTSUNNY  N/A N/A N/A CALM      29.98F
ST. JOHNSBURY*   N/A     50  49  96 MISG      29.96S
LYNDONVILLE*   FAIR      49  46  90 CALM      29.98S
MIDDLEBURY*    FAIR      53  53 100 CALM      29.97S
RUTLAND*       SUNNY     52  48  87 SE7       29.99R
SPRINGFIELD    FOG       49  49 100 CALM      29.98R VSB 1/2
HIGHGATE*      FAIR      53  51  93 SE3       29.93S
NEWPORT*       FAIR     N/A N/A N/A SW3       29.96S
BENNINGTON     SUNNY     50  49  96 CALM      29.99R
SUTTON*          N/A     50 N/A N/A MISG        N/A
GALLUP MILLS*    N/A     30 N/A N/A MISG        N/A
UNION VILLAGE*   N/A     50 N/A N/A MISG        N/A
MT. MANSFIELD*   N/A     48 N/A N/A NW10        N/A

_____LAKE CHAMPLAIN_____


CITY           SKY/WX    TMP DP  RH WIND       PRES   REMARKS
COLCHESTER RF*   N/A     64  57  77 S12         N/A
DIAMOND ISL*     N/A     59  55  88 SE8         N/A

$$

NYZ007-026>031-035-052-083-250800-
_____NORTHERN NEW YORK_____


CITY           SKY/WX    TMP DP  RH WIND       PRES   REMARKS
PLATTSBURGH    SUNNY     54  52  93 CALM      29.94S
SARANAC LAKE   SUNNY     44  42  93 CALM      29.99F
MASSENA        SUNNY     58  56  93 SW8       29.96R
OGDENSBURG*    SUNNY     57  55  94 SW3       29.97R
POTSDAM*       SUNNY     57  57 100 CALM      29.97S
PARISHVILLE*     N/A     57 N/A N/A W3          N/A
WATERTOWN      SUNNY     57  52  83 SE6       29.99S
FT DRUM        SUNNY     59  58  97 SW5       29.99S
ALBANY         SUNNY     59  51  75 W5        29.99R
GLENS FALLS    SUNNY     55  52  89 CALM      29.98R

$$
NHZ002-005-011-250800-
_____NEW HAMPSHIRE_____


CITY           SKY/WX    TMP DP  RH WIND       PRES   REMARKS
LEBANON        PTSUNNY   51  48  89 CALM      29.97S
KEENE          CLOUDY    54  45  71 CALM      29.98R VSB 1/4
MT WASHINGTON  FOG       41  41 100 NW32        N/A  VSB 1/16
PLYMOUTH       FAIR      49  48  95 CALM      29.96R
WHITEFIELD     SUNNY     47  44  90 CALM      29.97S

$$

_____REGIONAL QUEBEC LOCATIONS_____


CITY           SKY/WX    TMP DP  RH WIND       PRES   REMARKS
MONTREAL       MOSUNNY   63  54  72 SW9       29.92S
QUEBEC CITY    MOSUNNY   55  54  94 SW6       29.86S
SHERBROOKE     PTSUNNY   50  48  93 CALM      29.93S

_____REGIONAL ONTARIO LOCATIONS_____


CITY           SKY/WX    TMP DP  RH WIND       PRES   REMARKS
OTTAWA         PTSUNNY   61  54  77 W6        29.95S

______KEY______
VSB  - VISIBILITY IN MILES
WCI  - WIND CHILL INDEX
HX   - HEAT INDEX
$$



USA.gov is the U.S. government's official web portal to all federal, state and local government web resources and services.